Angleton, TX

7:40 AM CDT on September 18, 2019 (GMT -0500)
Brazoria County

Weather History for KLBX - August, 2019

Change the Weather History Date:

Monday, August 19, 2019

  Actual Average Record
Temperature  
Mean Temperature 86 °F -  
Max Temperature 95 °F 89 °F 100 °F (2011)
Min Temperature 78 °F 72 °F 69 °F (2013)
Cooling Degree Days 20    
Growing Degree Days 36 (Base 50)    
Moisture  
Dew Point 76 °F    
Average Humidity 75    
Maximum Humidity 94    
Minimum Humidity 52    
Precipitation  
Precipitation 0.00 in - - ()
Sea Level Pressure  
Sea Level Pressure 29.97 in    
Wind  
Wind Speed 5 mph ()    
Max Wind Speed 17 mph    
Max Gust Speed 23 mph    
Visibility 9.7 miles    
Events      
Averages and records for this station are not official NWS values.
T = Trace of Precipitation, MM = Missing Value Source: Averaged Metar Reports

Daily Weather History Graph

Daily Weather History Graph

Search for Another Location

Airport or City:

Astronomy

Aug. 19, 2019 Rise Set
Actual Time 6:52 AM CDT 7:57 PM CDT
Civil Twilight 6:27 AM CDT 8:22 PM CDT
Nautical Twilight 5:58 AM CDT 8:51 PM CDT
Astronomical Twilight 5:28 AM CDT 9:21 PM CDT
Moon 10:37 PM CDT (8/19) 10:19 AM CDT (8/19)
Length of Visible Light 13h 54m
Length of Day
13h 05m
Waning Gibbous, 85% of the Moon is Illuminated
Aug 19
Waning Gibbous
Aug 23
Last Quarter
Aug 30
New
Sep 5
First Quarter
Sep 13
Full

Hourly Weather History & Observations

Time (CDT) Temp. Heat Index Dew Point Humidity Pressure Visibility Wind Dir Wind Speed Gust Speed Precip Events Conditions
12:53 AM 82.0 °F 90.2 °F 77.0 °F 85% 29.94 in 10.0 mi SSE 4.6 mph - N/A   Partly Cloudy
1:53 AM 81.0 °F 87.9 °F 77.0 °F 88% 29.94 in 10.0 mi SSE 3.5 mph - N/A   Scattered Clouds
2:53 AM 81.0 °F 87.9 °F 77.0 °F 88% 29.94 in 10.0 mi South 5.8 mph - N/A   Clear
3:53 AM 81.0 °F 87.9 °F 77.0 °F 88% 29.94 in 10.0 mi Calm Calm - N/A   Clear
4:53 AM 80.1 °F 85.8 °F 77.0 °F 90% 29.94 in 10.0 mi Calm Calm - N/A   Mostly Cloudy
5:53 AM 79.0 °F - 77.0 °F 94% 29.96 in 10.0 mi Calm Calm - N/A   Clear
6:53 AM 78.1 °F - 75.9 °F 93% 29.97 in 9.0 mi Calm Calm - N/A   Partly Cloudy
7:40 AM 80.1 °F 86.4 °F 78.1 °F 94% 29.98 in 9.0 mi Calm Calm - N/A   Mostly Cloudy
7:53 AM 81.0 °F 88.6 °F 78.1 °F 91% 29.98 in 10.0 mi Calm Calm - N/A   Scattered Clouds
8:18 AM 84.0 °F 96.0 °F 79.0 °F 85% 29.99 in 10.0 mi SSE 3.5 mph - N/A   Mostly Cloudy
8:28 AM 84.9 °F 97.5 °F 79.0 °F 82% 29.99 in 10.0 mi South 3.5 mph - N/A   Mostly Cloudy
8:53 AM 87.1 °F 99.8 °F 78.1 °F 74% 29.99 in 9.0 mi South 9.2 mph - N/A   Overcast
9:53 AM 90.0 °F 101.3 °F 75.9 °F 63% 30.01 in 10.0 mi South 16.1 mph - N/A   Scattered Clouds
10:53 AM 91.0 °F 101.6 °F 75.0 °F 59% 30.01 in 10.0 mi South 16.1 mph - N/A   Clear
11:53 AM 93.9 °F 104.0 °F 73.9 °F 52% 30.01 in 10.0 mi SSW 10.4 mph - N/A   Partly Cloudy
12:53 PM 93.9 °F 105.4 °F 75.0 °F 54% 29.99 in 9.0 mi South 11.5 mph 23.0 mph N/A   Partly Cloudy
1:53 PM 93.0 °F 103.2 °F 73.9 °F 54% 29.98 in 10.0 mi South 13.8 mph - N/A   Mostly Cloudy
2:53 PM 93.0 °F 105.3 °F 75.9 °F 57% 29.97 in 10.0 mi South 11.5 mph 20.7 mph N/A   Mostly Cloudy
3:53 PM 93.0 °F 104.6 °F 75.0 °F 56% 29.96 in 9.0 mi South 16.1 mph - N/A   Mostly Cloudy
4:53 PM 91.0 °F 100.4 °F 73.9 °F 57% 29.95 in 10.0 mi South 17.3 mph - N/A   Mostly Cloudy
5:53 PM 91.0 °F 101.6 °F 75.0 °F 59% 29.96 in 10.0 mi South 12.7 mph - N/A   Scattered Clouds
6:53 PM 89.1 °F 100.2 °F 75.9 °F 65% 29.96 in 8.0 mi South 13.8 mph - N/A   Scattered Clouds
7:44 PM 87.1 °F 97.3 °F 75.9 °F 69% 29.96 in 9.0 mi South 11.5 mph - N/A   Mostly Cloudy
7:53 PM 87.1 °F 97.3 °F 75.9 °F 69% 29.96 in 9.0 mi South 10.4 mph - N/A   Scattered Clouds
8:53 PM 84.0 °F 93.7 °F 77.0 °F 79% 29.97 in 10.0 mi South 5.8 mph - N/A   Clear
9:53 PM 82.0 °F 89.4 °F 75.9 °F 82% 30.00 in 10.0 mi SSE 4.6 mph - N/A   Clear
10:53 PM 82.0 °F 90.2 °F 77.0 °F 85% 30.01 in 10.0 mi Calm Calm - N/A   Clear
11:53 PM 80.1 °F 85.4 °F 75.9 °F 87% 30.01 in 10.0 mi Calm Calm - N/A   Scattered Clouds